Location: N�rnberg
(49.4471°N, 11.0632°E)
Time: 19:24:45
(UTC+01:00)

Envisat - Pass Details

Date: 20 February 2026
Orbit: 761 x 763 km, 98.4° (Epoch: 6 March)

Event Time Altitude Azimuth Distance (km) Brightness Sun altitude
Rises 05:00:57 0° 0° (N) 3,236 6.4 -22.6°
Reaches altitude 10° 05:04:28 10° 335° (NNW) 2,305 5.3 -22.1°
Enters shadow 05:04:40 11° 333° (NNW) 2,269 5.3 -22.0°
